Liberty Clipper — WDE9221 — position and weather

sailwx.info

Track history (hours):
 
Tides and Currents Weather Stations Pressure Air Temp Water Temp Dewpoint Dewpoint Depression Visibility Wind Speed Wind Dir Waves Ship Positions

Liberty Clipper

Owner: Schooner Liberty Clipper, Inc., Wellesley, MA. More information available from US FCC via Universal Licensing System and Coast Guard Vessel Documentation Center.

Last reported at 2017-May-27 13:11 UTC. Time now 2017-Jun-28 03:51 UTC.
Position N 42°22' W 071°03'.
Warning: this ship's position is 31 days out of date.

Length 30 m.

Type: Sailing vessel. MMSI: 367414870.

Date/timePositionNaut miles runAvg speedWind from/ knotsBaromVisibWave heightAir tempDewpointWater temp
2017-May-27 13:11N 42°22' W 071°03'0 0.0
2017-May-27 12:59N 42°22' W 071°03'0 0.0
2017-May-27 12:22N 42°22' W 071°03'1 3.3
2017-May-27 12:00N 42°21' W 071°01'3 5.4
2017-May-27 11:30N 42°20' W 070°58'2 4.6
2017-May-27 11:00N 42°22' W 070°55'3 5.2
2017-May-27 10:30N 42°23' W 070°52'3 5.6
2017-May-27 10:00N 42°23' W 070°49'3 5.2
2017-May-27 09:30N 42°23' W 070°45'3 5.2
2017-May-27 08:59N 42°21' W 070°42'3 5.2
2017-May-27 08:30N 42°19' W 070°40'3 5.5
2017-May-27 08:00N 42°18' W 070°37'3 5.4
2017-May-27 07:27N 42°15' W 070°34'3 5.4
2017-May-27 06:56N 42°14' W 070°31'  
2017-May-24 08:02N 40°45' W 073°58'0 7.2
2017-May-24 08:00N 40°45' W 073°58'3 5.9
2017-May-24 07:30N 40°42' W 073°60'2 4.9
2017-May-24 07:00N 40°41' W 074°02'2 3.7
2017-May-24 06:30N 40°39' W 074°03'2 4.5
2017-May-24 06:00N 40°37' W 074°03'2 4.1
2017-May-24 05:30N 40°35' W 074°02'2 3.3
2017-May-24 05:00N 40°33' W 074°01'52 4.7
2017-May-23 18:02N 39°42' W 073°59'1 5.8
2017-May-23 17:51N 39°41' W 073°59'  
Track history (hours):
 
Tides and Currents Weather Stations Pressure Air Temp Water Temp Dewpoint Dewpoint Depression Visibility Wind Speed Wind Dir Waves Ship Positions

Liberty Clipper

Owner: Schooner Liberty Clipper, Inc., Wellesley, MA. More information available from US FCC via Universal Licensing System and Coast Guard Vessel Documentation Center.

Last reported at 2017-May-27 13:11 UTC. Time now 2017-Jun-28 03:51 UTC.
Position N 42°22' W 071°03'.
Warning: this ship's position is 31 days out of date.

Length 30 m.

Type: Sailing vessel. MMSI: 367414870.

Date/timePositionNaut miles runAvg speedWind from/ knotsBaromVisibWave heightAir tempDewpointWater temp
2017-May-27 13:11N 42°22' W 071°03'0 0.0
2017-May-27 12:59N 42°22' W 071°03'0 0.0
2017-May-27 12:22N 42°22' W 071°03'1 3.3
2017-May-27 12:00N 42°21' W 071°01'3 5.4
2017-May-27 11:30N 42°20' W 070°58'2 4.6
2017-May-27 11:00N 42°22' W 070°55'3 5.2
2017-May-27 10:30N 42°23' W 070°52'3 5.6
2017-May-27 10:00N 42°23' W 070°49'3 5.2
2017-May-27 09:30N 42°23' W 070°45'3 5.2
2017-May-27 08:59N 42°21' W 070°42'3 5.2
2017-May-27 08:30N 42°19' W 070°40'3 5.5
2017-May-27 08:00N 42°18' W 070°37'3 5.4
2017-May-27 07:27N 42°15' W 070°34'3 5.4
2017-May-27 06:56N 42°14' W 070°31'  
2017-May-24 08:02N 40°45' W 073°58'0 7.2
2017-May-24 08:00N 40°45' W 073°58'3 5.9
2017-May-24 07:30N 40°42' W 073°60'2 4.9
2017-May-24 07:00N 40°41' W 074°02'2 3.7
2017-May-24 06:30N 40°39' W 074°03'2 4.5
2017-May-24 06:00N 40°37' W 074°03'2 4.1
2017-May-24 05:30N 40°35' W 074°02'2 3.3
2017-May-24 05:00N 40°33' W 074°01'52 4.7
2017-May-23 18:02N 39°42' W 073°59'1 5.8
2017-May-23 17:51N 39°41' W 073°59'  

Dump ship's entire track history